User: anonymous   Login
Location: Baix
(44.7118°N, 4.7648°E)
Time: 00:05:03
(UTC+00:00)
Language:

Okean 2 Rocket - Orbit

View from above orbital plane
View from above orbital plane
View from above satellite
View from above satellite

Ground track
Ground track

The orbit data is extracted from the following two-line orbital elements,

1 20511U 90018B   20293.40327351  .00000067  00000-0  56879-5 0  9991
2 20511  82.5216 257.6957 0018987  72.9838  84.9788 14.80050880652546
Epoch (UTC): 19 October 2020 09:40:42
Eccentricity: 0.0018987
inclination: 82.5216°
perigee height: 616 km
apogee height: 642 km
right ascension of ascending node: 257.6957°
argument of perigee: 72.9838°
revolutions per day: 14.80050880
mean anomaly at epoch: 84.9788°
orbit number at epoch: 65254

The dashed part of the orbit path shows where the satellite is in the earth's shadow,  

DLR